When you browse on this site, cookies collect data to enhance your experience and personalize the content and advertising you see.
Visit our Privacy Policy to learn more. By continuing to use the site, you agree to this use of cookies and data.
  • In Romania
  • List of Countries
  • For 7 days
  • Water Temperature
  • Satellite Maps
  • Weather Map
  • Weather Widgets
  • user-avatar
    Login

    Hourly Weather Maloe Svyatcovo

    Today, 17 January, Thursday

    Time Temperature Precipitation Wind Pressure Humidity
    00:00 -9°C° 0 mm 3 mps 731 mmHg 91%
    01:00 -9°C° 0 mm 3 mps 731 mmHg 91%
    02:00 -9°C° 0 mm 2 mps 731 mmHg 91%
    03:00 -12°C° 0 mm 3 mps 731 mmHg 92%
    04:00 -13°C° 0 mm 3 mps 731 mmHg 94%
    05:00 -14°C° 0 mm 3 mps 731 mmHg 95%
    06:00 -13°C° 0 mm 3 mps 730 mmHg 94%
    07:00 -12°C° 0 mm 4 mps 729 mmHg 93%
    08:00 -11°C° 0 mm 4 mps 729 mmHg 91%
    09:00 -11°C° 0.4 mm 5 mps 728 mmHg 91%
    10:00 -10°C° 0.4 mm 5 mps 727 mmHg 90%
    11:00 -9°C° 0.4 mm 6 mps 727 mmHg 90%
    12:00 -6°C° 0.4 mm 6 mps 726 mmHg 89%
    13:00 -5°C° 0.4 mm 6 mps 726 mmHg 87%
    14:00 -4°C° 0 mm 7 mps 725 mmHg 87%
    15:00 -3°C° 0.1 mm 7 mps 724 mmHg 86%
    16:00 -3°C° 0.1 mm 7 mps 724 mmHg 85%
    17:00 -2°C° 0.1 mm 7 mps 723 mmHg 84%
    18:00 -2°C° 0.3 mm 7 mps 723 mmHg 85%
    19:00 -2°C° 0.3 mm 6 mps 722 mmHg 85%
    20:00 -1°C° 0.3 mm 6 mps 722 mmHg 86%
    21:00 -1°C° 0.1 mm 6 mps 722 mmHg 85%
    22:00 -1°C° 0.1 mm 6 mps 723 mmHg 85%
    23:00 -1°C° 0.1 mm 6 mps 723 mmHg 84%

    Tomorrow, 18 January, Friday

    Time Temperature Precipitation Wind Pressure Humidity
    00:00 -2°C° 0.1 mm 6 mps 723 mmHg 85%
    01:00 -2°C° 0.1 mm 6 mps 724 mmHg 85%
    02:00 -1°C° 0.1 mm 5 mps 725 mmHg 85%
    03:00 -1°C° 0.1 mm 5 mps 725 mmHg 85%
    04:00 -2°C° 0.1 mm 5 mps 726 mmHg 84%
    05:00 -2°C° 0.1 mm 5 mps 726 mmHg 83%
    06:00 -4°C° 0 mm 4 mps 727 mmHg 84%
    07:00 -5°C° 0 mm 4 mps 727 mmHg 85%
    08:00 -7°C° 0 mm 4 mps 728 mmHg 86%
    09:00 -7°C° 0 mm 4 mps 729 mmHg 86%
    10:00 -7°C° 0 mm 4 mps 729 mmHg 85%
    11:00 -8°C° 0 mm 4 mps 730 mmHg 85%
    12:00 -7°C° 0 mm 3 mps 730 mmHg 86%
    13:00 -5°C° 0 mm 2 mps 730 mmHg 87%
    14:00 -5°C° 0 mm 2 mps 731 mmHg 88%
    15:00 -6°C° 0.2 mm 2 mps 730 mmHg 90%
    16:00 -4°C° 0.2 mm 1 mps 730 mmHg 93%
    17:00 -6°C° 0.2 mm 1 mps 730 mmHg 95%
    18:00 -6°C° 0.4 mm 1 mps 730 mmHg 95%
    19:00 -8°C° 0.4 mm 2 mps 730 mmHg 94%
    20:00 -8°C° 0.4 mm 2 mps 730 mmHg 94%
    21:00 -8°C° 0.2 mm 2 mps 730 mmHg 93%
    22:00 -9°C° 0.2 mm 2 mps 731 mmHg 92%
    23:00 -9°C° 0.2 mm 2 mps 731 mmHg 91%

    Day after tomorrow, 19 January, Saturday

    Time Temperature Precipitation Wind Pressure Humidity
    00:00 -10°C° 0 mm 2 mps 732 mmHg 91%
    01:00 -12°C° 0 mm 3 mps 732 mmHg 92%
    02:00 -13°C° 0 mm 3 mps 733 mmHg 93%
    03:00 -12°C° 0 mm 3 mps 733 mmHg 93%
    04:00 -12°C° 0 mm 3 mps 734 mmHg 93%
    05:00 -10°C° 0 mm 3 mps 734 mmHg 92%
    06:00 -10°C° 0 mm 3 mps 734 mmHg 92%
    07:00 -10°C° 0 mm 4 mps 735 mmHg 91%
    08:00 -10°C° 0 mm 4 mps 735 mmHg 90%
    09:00 -9°C° 0.1 mm 4 mps 735 mmHg 88%
    10:00 -9°C° 0.1 mm 4 mps 736 mmHg 87%
    11:00 -8°C° 0.1 mm 5 mps 736 mmHg 86%
    12:00 -8°C° 0.2 mm 4 mps 736 mmHg 87%
    13:00 -8°C° 0.2 mm 4 mps 736 mmHg 87%
    14:00 -8°C° 0.2 mm 4 mps 737 mmHg 88%
    15:00 -8°C° 0.2 mm 4 mps 737 mmHg 89%
    16:00 -7°C° 0.2 mm 3 mps 737 mmHg 91%
    17:00 -8°C° 0.2 mm 3 mps 738 mmHg 92%
    18:00 -8°C° 0.1 mm 3 mps 738 mmHg 92%
    19:00 -9°C° 0.1 mm 3 mps 738 mmHg 91%
    20:00 -9°C° 0.1 mm 3 mps 738 mmHg 91%
    21:00 -9°C° 0 mm 3 mps 739 mmHg 92%
    22:00 -10°C° 0 mm 3 mps 739 mmHg 93%
    23:00 -10°C° 0 mm 3 mps 739 mmHg 94%

    20 January, Sunday

    Time Temperature Precipitation Wind Pressure Humidity
    00:00 -9°C° 0 mm 3 mps 739 mmHg 92%
    01:00 -9°C° 0 mm 4 mps 739 mmHg 90%
    02:00 -8°C° 0 mm 4 mps 739 mmHg 88%
    03:00 -10°C° 0 mm 5 mps 739 mmHg 87%
    04:00 -10°C° 0 mm 5 mps 738 mmHg 87%
    05:00 -11°C° 0 mm 5 mps 737 mmHg 87%
    06:00 -10°C° 0.1 mm 5 mps 737 mmHg 87%
    07:00 -8°C° 0.1 mm 5 mps 737 mmHg 87%
    08:00 -8°C° 0.1 mm 5 mps 737 mmHg 87%
    09:00 -7°C° 0.4 mm 4 mps 737 mmHg 88%
    10:00 -7°C° 0.4 mm 4 mps 737 mmHg 89%
    11:00 -5°C° 0.4 mm 4 mps 736 mmHg 90%
    12:00 -5°C° 0.2 mm 3 mps 736 mmHg 89%
    13:00 -6°C° 0.2 mm 3 mps 736 mmHg 88%
    14:00 -7°C° 0.2 mm 3 mps 736 mmHg 87%
    15:00 -7°C° 0.1 mm 3 mps 736 mmHg 88%
    16:00 -8°C° 0.1 mm 3 mps 737 mmHg 90%
    17:00 -7°C° 0.1 mm 2 mps 737 mmHg 91%
    18:00 -8°C° 0 mm 2 mps 737 mmHg 93%
    19:00 -10°C° 0 mm 2 mps 737 mmHg 94%
    20:00 -12°C° 0 mm 2 mps 737 mmHg 95%
    21:00 -12°C° 0 mm 2 mps 738 mmHg 95%
    22:00 -13°C° 0 mm 2 mps 738 mmHg 96%
    23:00 -14°C° 0 mm 2 mps 738 mmHg 96%

    21 January, Monday

    Time Temperature Precipitation Wind Pressure Humidity
    00:00 -14°C° 0 mm 2 mps 738 mmHg 96%
    01:00 -14°C° 0 mm 2 mps 738 mmHg 96%
    02:00 -15°C° 0 mm 2 mps 738 mmHg 96%
    03:00 -15°C° 0 mm 2 mps 738 mmHg 96%
    04:00 -15°C° 0 mm 2 mps 738 mmHg 96%
    05:00 -16°C° 0 mm 2 mps 738 mmHg 96%
    06:00 -16°C° 0 mm 2 mps 738 mmHg 97%
    07:00 -17°C° 0 mm 2 mps 738 mmHg 97%
    08:00 -17°C° 0 mm 2 mps 739 mmHg 97%
    09:00 -16°C° 0 mm 2 mps 739 mmHg 95%
    10:00 -15°C° 0 mm 2 mps 739 mmHg 94%
    11:00 -13°C° 0 mm 2 mps 739 mmHg 92%
    12:00 -14°C° 0 mm 3 mps 740 mmHg 90%
    13:00 -14°C° 0 mm 3 mps 740 mmHg 88%
    14:00 -14°C° 0 mm 3 mps 740 mmHg 86%
    15:00 -15°C° 0 mm 3 mps 740 mmHg 88%
    16:00 -16°C° 0 mm 3 mps 740 mmHg 91%
    17:00 -17°C° 0 mm 2 mps 741 mmHg 93%
    18:00 -17°C° 0 mm 2 mps 741 mmHg 94%
    19:00 -18°C° 0 mm 2 mps 741 mmHg 95%
    20:00 -19°C° 0 mm 2 mps 741 mmHg 96%
    21:00 -19°C° 0 mm 2 mps 741 mmHg 96%
    22:00 -20°C° 0 mm 2 mps 742 mmHg 96%
    23:00 -22°C° 0 mm 3 mps 742 mmHg 96%

    22 January, Tuesday

    Time Temperature Precipitation Wind Pressure Humidity
    00:00 -22°C° 0 mm 3 mps 742 mmHg 96%
    01:00 -22°C° 0 mm 3 mps 742 mmHg 96%
    02:00 -22°C° 0 mm 3 mps 742 mmHg 96%
    03:00 -22°C° 0 mm 3 mps 743 mmHg 96%
    04:00 -20°C° 0 mm 2 mps 743 mmHg 96%
    05:00 -20°C° 0 mm 2 mps 743 mmHg 96%
    06:00 -20°C° 0 mm 2 mps 743 mmHg 96%
    07:00 -20°C° 0 mm 2 mps 743 mmHg 96%
    08:00 -20°C° 0 mm 2 mps 744 mmHg 95%
    09:00 -19°C° 0 mm 2 mps 744 mmHg 95%
    10:00 -18°C° 0 mm 2 mps 744 mmHg 94%
    11:00 -18°C° 0 mm 2 mps 745 mmHg 93%
    12:00 -17°C° 0 mm 2 mps 745 mmHg 93%
    13:00 -17°C° 0 mm 2 mps 745 mmHg 93%
    14:00 -16°C° 0 mm 2 mps 745 mmHg 93%
    15:00 -18°C° 0 mm 2 mps 745 mmHg 94%
    16:00 -19°C° 0 mm 2 mps 745 mmHg 95%
    17:00 -20°C° 0 mm 2 mps 745 mmHg 97%
    18:00 -20°C° 0 mm 2 mps 745 mmHg 97%
    19:00 -21°C° 0 mm 2 mps 745 mmHg 97%
    20:00 -21°C° 0 mm 2 mps 746 mmHg 98%
    21:00 -21°C° 0 mm 2 mps 746 mmHg 98%
    22:00 -21°C° 0 mm 2 mps 746 mmHg 98%
    23:00 -21°C° 0 mm 2 mps 746 mmHg 98%
    Show more